Regional Weather Roundup
Issued by NWS

Home | Current Version | Previous Version | Text Only | Print | Product List | Glossary Off
Versions: 1 2 3 4 5 6 7 8 9 10 11 12 13 14 15 16 17 18 19 20 21 22 23 24 25 26 27 28 29 30 31 32 33 34 35 36 37 38 39 40 41 42 43 44 45 46 47 48 49 50

000
ASUS43 KOAX 302202
RWRNE

WEATHER ROUNDUP FOR NEBRASKA
NATIONAL WEATHER SERVICE OMAHA NE
500 PM CDT SAT APR 30 2016

NOTES: SATELLITE DATA IS BEING USED TO AUGMENT CLOUD COVER ABOVE
       12000 FEET.
       "FAIR" INDICATES FEW OR NO CLOUDS BELOW 12,000 FEET WITH NO
       SIGNIFICANT WEATHER AND/OR OBSTRUCTIONS TO VISIBILITY.

  * THESE STATIONS DO NOT REPORT WEATHER SUCH AS RAIN...SNOW OR FOG.

NEZ001>004-019>022-054>056-302300-
NEBRASKA PANHANDLE

CITY           SKY/WX    TMP DP  RH WIND       PRES   REMARKS
SCOTTSBLUFF    LGT RAIN  37  32  82 N18G24    30.05R WCI  27
ALLIANCE       LGT SNOW  34  32  92 N17       29.99R FOG     WCI  23
CHADRON        CLOUDY    45  34  65 NE18      30.04S
KIMBALL        LGT SNOW  33  33  98 N20       30.01R VSB 3/4 WCI  22
SIDNEY         SNOW      34  32  92 N22       29.98R VSB 1/2 WCI  22
$$

NEZ057>060-069>072-079>082-302300-
SOUTHWEST NEBRASKA

CITY           SKY/WX    TMP DP  RH WIND       PRES   REMARKS
NORTH PLATTE   FLURRIES  37  35  92 N21G31    29.87R WCI  26
IMPERIAL       FLURRIES  36  34  92 N18       29.90R WCI  26
LEXINGTON      LGT RAIN  42  38  86 N17       29.84R
MCCOOK         CLOUDY    41  36  82 N14       29.85R
$$

NEZ005>010-023>029-035>040-094-302300-
NORTH CENTRAL NEBRASKA

CITY           SKY/WX    TMP DP  RH WIND       PRES   REMARKS
VALENTINE      LGT RAIN  39  36  89 NE22G37   29.97R WCI  29
AINSWORTH      LGT RAIN  37  36  96 N17G23    29.92S WCI  27
BROKEN BOW     LGT RAIN  40  38  93 N17       29.83R FOG     WCI  31
ORD            LGT RAIN  43  41  93 N13       29.81S
$$

NEZ041-046>049-061>064-073>077-083>087-302300-
SOUTH CENTRAL NEBRASKA

CITY           SKY/WX    TMP DP  RH WIND       PRES   REMARKS
GRAND ISLAND   CLOUDY    47  44  90 N13       29.78F
AURORA         CLOUDY    48  47  96 N9        29.77S
HASTINGS       CLOUDY    48  42  80 N9        29.78R
KEARNEY *      CLOUDY    45  39  81 N10       29.80R
YORK           MOSUNNY   48  46  93 N6        29.77S
$$

NEZ011>018-030>034-042>045-302300-
NORTHEAST NEBRASKA

CITY           SKY/WX    TMP DP  RH WIND       PRES   REMARKS
NORFOLK        LGT RAIN  46  44  93 NE13      29.81R FOG
ALBION         LGT RAIN  45  43  94 NE12      29.80S
BLAIR          CLOUDY    49  48  95 NE14      29.77R FOG
COLUMBUS *     CLOUDY    48  39  71 NE9       29.79R
FREMONT        CLOUDY    49  48  97 NE10      29.78R FOG
TEKAMAH        LGT RAIN  49  47  93 NE13      29.80R FOG
$$

NEZ050>053-065>068-078-088>093-302300-
SOUTHEAST NEBRASKA

CITY           SKY/WX    TMP DP  RH WIND       PRES   REMARKS
LINCOLN        LGT RAIN  52  50  93 NE7       29.77R FOG
OMAHA EPPLEY   DRIZZLE   50  48  93 E8        29.77S FOG
FALLS CITY     MOSUNNY   63  49  60 W10       29.73S
$$

NEZ044-045-051>053-067-302300-
OMAHA AREA

CITY           SKY/WX    TMP DP  RH WIND       PRES   REMARKS
OMAHA EPPLEY   DRIZZLE   50  48  93 E8        29.77S FOG
BLAIR          CLOUDY    49  48  95 NE14      29.77R FOG
FREMONT        CLOUDY    49  48  97 NE10      29.78R FOG
OFFUTT AFB     CLOUDY    51  51  99 NE12      29.76R
$$




USA.gov is the U.S. government's official web portal to all federal, state and local government web resources and services.